Погода в Корсаково-1

Россия / Хабаровский край     48°20′46″N   134°57′16″E
темп.,
°C
ветер,
м/с
пор.,
м/с
влажн.,
%
обл.,
%
осадки,
мм/ч
давл.,
гПа
погр.,
м
30 ноября, вт
вт3001:00−16ю2295100 0.0 102550
04:00−16ююз3593100 0.0 102494
07:00−15ююз2389100 0.0 102363
10:00−13ююз1288100 0.0 1022106
13:00−11ююз1174100 0.0 1020271
16:00−10ссв1180100 0.0 1017202
19:00−12ссв1294100 0.0 1015110
22:00−13ссв2491100 0.1 1012178
1 декабря, ср
ср101:00−13с41295100 1.2 1007399
04:00−12с61895100 5.2 1001734
07:00−10с91994100 4.9 9971054
10:00−10с71695100 8.6 9971202
13:00−10ссз71494100 3.3 9951316
16:00−10сз51195100 5.4 995686
19:00−10зсз3995100 1.5 995445
22:00−11з3894100 2.1 995371
2 декабря, чт
чт201:00−12з3795100 0.3 996325
04:00−14зюз4795100 0.4 998216
07:00−18юз3595100 0.0 1000104
10:00−19ююз35945 0.0 1002134
13:00−15юз47845 0.0 1002358
16:00−14юз4119077 0.0 1003423
19:00−14ююз259778 0.1 100483
22:00−15ююв2298100 0.3 100436
3 декабря, пт
пт301:00−12юв1297100 0.3 100344
04:00−12ссв0098100 0.5 100214
07:00−12ссз1197100 0.3 100331
10:00−11ссз1295100 0.9 1004115
13:00−9зсз238299 0.3 1005314
16:00−12з228728 0.3 100756
19:00−20зюз229726 0.0 100921
22:00−23юз229736 0.0 101021
4 декабря, сб
сб401:00−26ююз2210054 0.0 101211
04:00−28юз1110064 0.0 101210
07:00−27ююз11100100 0.0 101411
10:00−22ююз119884 0.1 101570
13:00−19ююз1192100 0.0 1015286
16:00−19юз229589 0.1 1016116
19:00−26юз2210071 0.0 101918
22:00−27ююз329962 0.0 101932